Terminal Aerodrome Forecast
Issued by NWS

Home | Current Version | Previous Version | Text Only | Print | Product List | Glossary On
Versions: 1 2 3 4 5 6 7 8 9 10 11 12 13 14 15 16 17 18 19 20 21 22 23 24 25 26 27 28 29 30 31 32 33 34 35 36 37 38 39 40 41 42 43 44 45 46 47
000
FTAK31 PANC 230522
TAFAAQ
TAF
PAAQ 230522Z 2306/2406 01006KT P6SM SCT030 OVC060
      TEMPO 2306/2310 BKN025
     FM231500 VRB04KT P6SM SCT030 BKN200=

USA.gov is the U.S. government's official web portal to all federal, state and local government web resources and services.